Showing default

ARCTIC WEATHER SATELLITE, 60543

Orbit data source: Space-Track

ARCTIC WEATHER SATELLITE, 60543 is a payload satellite owned by ESA (NO) in SSO that was launched on Fri, 16 Aug 2024 UTC via an FALCON 9 launch vehicle from the Air Force Western Test Range (AFWTR). Payload-class satellites include a variety of spacecraft equipped with specific instruments for various scientific and technological missions. These include communications satellites like Starlink; space stations such as the ISS; scientific satellites like the Hubble; Earth observation satellites from companies like Planet Labs, Umbra, and HawkEye 360; GPS; miniature CubeSats for education and research; and military/defense satellites.

Loading next visibility...
Identifier
60543, 2024-149CD
Orbit
SSO
Country
Flag of NONO / NOR
Related business
Manufacturer
OHB-SE
Mission
Operational Civil Earth Obs Sci
Bus & Motor
INNOSAT, Unknown motor
Mass
125 kg wet, ~120 kg dry
Launch date (UTC)
2024-08-16 (2 years ago)
Launch vehicle
FALCON 9
Launch site
Air Force Western Test Range (AFWTR)
Object type
Payload
Rocket body
Debris
Shape & HBR
Box + 2 Pan, 2.6 m
Radar Cross Section
2.380 m², Large (>1 m²)

Expand to show TLE details & history
Last TLE update: 5 hours ago

TLE from 5 hours ago
0 ARCTIC WEATHER SATELLITE
1 60543U 24149CD  26193.13887325  .00000537  00000-0  61552-4 0  9994
2 60543  97.6792 262.8899 0003065  55.9905 304.1603 14.89800872103010
Epoch: 2026-07-12T03:19Z
TLE epoch observation values (Epoch: 2026-07-12T03:19:58.648Z)
Latitude
-0.00012°
Longitude
-77.14649°
Altitude
600.398 km
Speed
7.56 km/s
True Right ascension
17h 31m 33s
True Declination
0° 00' 00"
Sunlit
Object was in full shadow at epoch
Visualization orbit readout
Latitude
Unknown
Longitude
Unknown
Altitude
Unknown
Speed
Unknown
Apparent Right ascension
Unknown
Apparent Declination
Unknown
Sunlit
N/A
Visualization observer readout
Local Sidereal Time
20:53:42
Azimuth
Unknown
Elevation
Unknown
Doppler factor
Unknown
Orbital elements
Apogee altitude
597.713 km
Perigee altitude
593.438 km
Semi-major axis
6,973.712 km
Eccentricity
0.00031
Inclination
97.6792°
RAAN
262.8899°
Arg. of periapsis
55.9905°
True anomaly
304.13123°
Mean anomaly
304.1603°
Eccentric anomaly
304.14577°
Mean motion
3.72689 °/min
Orbital period
96.6 mins
BSTAR
0.000061552
Loading maneuver chart data...
Computing Atmospheric mass density...
Loading historical data...
Loading historical data...
Loading historical data...
Loading historical data...
Loading historical data...
Loading historical data...
Loading historical data...

Documentation

Showing up to 5 results
|